www.pogodaiklimat.ru
ПОГОДА в Каменице-над-Сирочью

Архив погоды в Каменице-над-Сирочью (Словакия)

Время
(UTC), дата
10 19.05
11 19.05
12 19.05
13 19.05
14 19.05
15 19.05
16 19.05
17 19.05
18 19.05
19 19.05
20 19.05
21 19.05
22 19.05
23 19.05
00 20.05
01 20.05
02 20.05
03 20.05
04 20.05
05 20.05
06 20.05
07 20.05
08 20.05
09 20.05
10 20.05
11 20.05
12 20.05
13 20.05
14 20.05
15 20.05
16 20.05
17 20.05
18 20.05
19 20.05
20 20.05
21 20.05
22 20.05
23 20.05
00 21.05
01 21.05
02 21.05
03 21.05
04 21.05
05 21.05
06 21.05
07 21.05
08 21.05
09 21.05
10 21.05
11 21.05
12 21.05
13 21.05
14 21.05
15 21.05
16 21.05
17 21.05
18 21.05
19 21.05
20 21.05
21 21.05
22 21.05
23 21.05
00 22.05
01 22.05
02 22.05
03 22.05
04 22.05
05 22.05
06 22.05
07 22.05
08 22.05
09 22.05
10 22.05
11 22.05
12 22.05
13 22.05
14 22.05
15 22.05
16 22.05
17 22.05
18 22.05
19 22.05
20 22.05
21 22.05
22 22.05
23 22.05
00 23.05
01 23.05
02 23.05
03 23.05
04 23.05
05 23.05
06 23.05
07 23.05
08 23.05
09 23.05
10 23.05
11 23.05
12 23.05
13 23.05
14 23.05
15 23.05
16 23.05
17 23.05
18 23.05
19 23.05
20 23.05
21 23.05
22 23.05
23 23.05
00 24.05
01 24.05
02 24.05
03 24.05
04 24.05
05 24.05
06 24.05
07 24.05
08 24.05
09 24.05
10 24.05
11 24.05
12 24.05
13 24.05
14 24.05
15 24.05
16 24.05
17 24.05
18 24.05
19 24.05
20 24.05
21 24.05
22 24.05
23 24.05
00 25.05
01 25.05
02 25.05
03 25.05
04 25.05
05 25.05
06 25.05
07 25.05
08 25.05
09 25.05
10 25.05
11 25.05
12 25.05
13 25.05
14 25.05
15 25.05
16 25.05
17 25.05
18 25.05
19 25.05
20 25.05
21 25.05
22 25.05
23 25.05
00 26.05
01 26.05
02 26.05
03 26.05
04 26.05
05 26.05
06 26.05
07 26.05
08 26.05
09 26.05
Ветер
(напр.,м/с)
Видим. Явления Облачность Т
(С)
Тd
(С)
f
(%)
Тe
(С)
Тes
(С)
Комфортность P
(гПа)
Po
(гПа)
Тmin
(С)
Tmax
(С)
R
(мм)
R24
(мм)
S
(см)
2 35 км 4/4 1260 м
[Cu med, cong Ci fib]
+22.3 +12.6 54 +25 +35 комфорт 1013.8 993.3
ЮЗ 2 35 км 4/4 1320 м
[Cu med, cong Ci fib]
+24.0 +11.7 46 +26 +36 жарко 1012.9 992.6
Ю 3 40 км 5/5 1350 м
[Cu med, cong Ci fib]
+24.0 +12.3 48 +26 +32 жарко 1012.5 992.2
ЮЗ 4 40 км 5/5 1380 м
[Cu med, cong Ci fib]
+24.1 +11.1 44 +25 +30 комфорт 1011.8 991.5
ЮЗ 2 40 км 5/4 1380 м
[Cu med, cong Ci fib]
+24.9 +11.1 42 +26 +32 жарко 1011.6 991.3
Ю 3 40 км 5/5 1380 м
[Cu med, cong Ci fib]
+22.9 +11.6 49 +25 +28 комфорт 1011.6 991.2
Ю 2 35 км в посл. час ливневой дождь {гроза} 4/4 1350 м
[Cu med, cong Ci fib]
+21.9 +13.8 60 +25 +27 комфорт 1011.4 991.0 0.0
Ю 3 35 км 5/3 1350 м
[Cu med, cong Ac trans Ci fib]
+20.7 +12.7 60 +23 +24 комфорт 1011.6 991.1
нст 1 30 км {гроза, ливн. дождь} 4/3 1380 м
[Sc diur, vesp Ac trans]
+19.4 +12.7 65 +22 +22 комфорт 1011.3 990.7 +25.0
1 20 км 3/0
[Ac lent]
+17.4 +10.1 62 +18 +18 1011.9 991.1
1 19 км ясно +15.0 +10.8 76 +16 +16 1012.7 991.7
нст 1 н/о н/о +12.7 +11.1 90 +13 +13 1012.9 991.8
1 н/о н/о +12.2 +10.4 89 +12 +12 1013.2 992.0
1 н/о н/о +11.8 +10.2 90 +12 +12 1013.2 992.0
штиль 0 н/о н/о +10.8 +9.7 93 +10 +10 1013.4 992.1
штиль 0 н/о н/о +10.8 +9.6 92 +10 +10 1013.5 992.2
штиль 0 н/о н/о +10.5 +9.6 94 +10 +10 1013.3 992.0
штиль 0 н/о н/о +10.9 +10.0 94 +10 +10 1013.4 992.1
1 н/о н/о +11.0 +10.1 94 +11 +11 1013.8 992.5
1 н/о н/о +12.8 +10.9 88 +13 +13 1014.1 992.9
нст 1 35 км 9/8 1500 м
[Sc Ci fib]
+15.0 +11.6 80 +16 +17 1014.1 993.1 +10.4 0.0
1 40 км 8/1 1500 м
[Sc Ac trans Ci sp]
+18.3 +13.0 71 +20 +26 1013.8 993.1
1 40 км 6/4 2000 м
[Cu med, cong Ci fib]
+21.0 +13.0 60 +25 +33 комфорт 1013.4 992.9
Ю 3 35 км 8/4 1500 м
[Cu med, cong Ac trans Ci fib]
+22.2 +13.0 56 +25 +30 комфорт 1013.5 993.0
Ю 4 30 км 8/6 1500 м
[Cu med, cong Ci fib]
+23.0 +14.3 58 +27 +31 душно 1013.4 993.0
Ю 4 30 км 8/6 1500 м
[Cu med, cong Ci fib]
+23.9 +14.0 54 +26 +31 жарко 1013.1 992.8
Ю 5 25 км 8/5 1500 м
[Cu med, cong Ci sp]
+24.9 +14.7 53 +28 +31 жарко 1012.4 992.2
Ю 3 22 км 9/5 1200 м
[Cu med, cong Cs]
+23.9 +14.6 56 +27 +31 жарко 1012.1 991.8
З 3 28 км 9/5 1200 м
[Sc Cs]
+22.9 +15.0 61 +27 +30 душно 1012.5 992.1
З 4 30 км 9/3 1500 м
[Cb cap Ac cuf Ci ing]
+19.0 +11.1 60 +20 +21 1013.4 992.7
Ю 3 40 км в посл. час ливневой дождь 9/6 1080 м
[Cb cap Ac cuf Ci ing]
+17.8 +13.1 74 +18 +19 1013.8 993.0 0.4
Ю 1 35 км в посл. час ливневой дождь 9/0
[Ac As]
+17.8 +14.7 82 +19 +19 1013.4 992.6
нст 1 35 км {ливн. дождь} 6/1 1500 м
[Cu med, cong Ac As]
+17.5 +14.2 81 +19 +19 1013.9 993.1 +25.0
1 35 км 9/0
[Ac As Ci sp]
+15.9 +14.4 91 +17 +17 1014.6 993.7
1 35 км 9/0
[Ac As Cs]
+15.2 +13.9 92 +16 +16 1014.8 993.8
нст 2 н/о н/о +14.2 +13.4 95 +14 +14 1014.6 993.5
штиль 0 н/о н/о +13.8 +12.8 94 +13 +13 1014.8 993.7
штиль 1 н/о н/о +12.9 +12.1 95 +13 +13 1015.0 993.8
нст 1 н/о н/о +12.1 +11.3 95 +12 +12 1015.2 994.0
штиль 0 н/о н/о +11.8 +11.2 96 +11 +11 1015.0 993.8
штиль 1 н/о н/о +11.1 +10.0 93 +11 +11 1015.0 993.7
штиль 0 н/о н/о +10.1 +9.3 95 +9 +9 1015.1 993.7
штиль 0 н/о н/о +11.6 +11.0 96 +11 +11 1015.1 993.8
штиль 1 н/о н/о +13.7 +12.3 91 +14 +14 1014.8 993.7
нст 1 23 км 4/0
[Ci fib]
+16.7 +13.6 82 +18 +24 1014.7 993.8 +10.1 0.4
1 24 км 4/0
[Ci fib]
+18.9 +14.2 74 +21 +31 комфорт 1014.2 993.5
1 25 км 4/3 1000 м
[Cu med, cong Ci fib]
+22.1 +14.8 63 +25 +36 комфорт 1013.9 993.4
Ю 2 25 км 4/4 1000 м
[Cu med, cong Ci fib]
+24.2 +14.9 56 +27 +36 жарко 1013.5 993.2
Ю 3 27 км 4/4 1110 м
[Cu med, cong Ci fib]
+25.1 +14.0 50 +27 +36 жарко 1013.3 993.0
Ю 2 30 км 4/4 1230 м
[Cu med, cong Ci fib]
+25.9 +14.1 48 +28 +39 жарко 1012.7 992.5
ЮЗ 2 30 км 4/4 1260 м
[Cu med, cong Ci fib]
+26.5 +13.6 45 +29 +38 жарко 1011.9 991.8
1 35 км 4/4 1300 м
[Cu med, cong]
+27.4 +13.8 43 +29 +38 жарко 1011.2 991.1
Ю 3 35 км 4/4 1320 м
[Cu med, cong Ci fib]
+27.4 +13.0 41 +29 +34 жарко 1010.5 990.4
Ю 2 35 км 4/4 1350 м
[Cu med, cong Ci fib]
+26.9 +12.6 41 +28 +32 жарко 1010.1 990.0
Ю 3 35 км 5/4 1350 м
[Cu med, cong Ci fib]
+26.5 +12.2 41 +28 +29 жарко 1009.8 989.7
Ю 2 35 км 5/3 1350 м
[Cu med, cong Ci fib]
+25.2 +13.4 48 +27 +28 жарко 1009.4 989.2
нст 2 30 км 6/0
[Ci]
+23.2 +15.5 62 +27 +27 душно 1009.3 989.0 +27.4
Ю 2 20 км 6/0
[Cs]
+20.7 +15.0 70 +24 +24 комфорт 1010.2 989.7
Ю 1 18 км 6/0
[Cs]
+19.8 +14.2 70 +23 +23 комфорт 1010.0 989.5
нст 1 н/о н/о +17.4 +14.3 82 +18 +18 1010.0 989.3
1 н/о н/о +15.7 +13.5 87 +16 +16 1010.2 989.4
1 н/о н/о +15.0 +13.2 89 +15 +15 1010.3 989.4
нст 1 н/о н/о +13.6 +12.2 91 +14 +14 1010.1 989.1
1 н/о н/о +13.9 +13.3 96 +14 +14 1009.8 988.8
1 н/о н/о +13.2 +11.9 92 +13 +13 1009.8 988.8
нст 1 н/о н/о +13.4 +11.6 89 +14 +14 1010.0 989.0
ЮЗ 4 н/о н/о +17.7 +13.6 77 +17 +17 1010.5 989.8
ЮЗ 1 н/о н/о +18.2 +14.3 78 +20 +20 1010.6 989.9
Ю 2 25 км в посл. час дождь 8/3 1000 м
[Cu med, cong Ac trans]
+19.7 +14.3 71 +22 +24 комфорт 1010.8 990.2 +12.8 0.0 0.0
Ю 4 25 км 9/9 1050 м
[Cu Sc]
+19.4 +14.0 71 +21 +22 комфорт 1011.2 990.6
Ю 2 25 км 9/8 800 м
[Cu Sc Ac lent]
+20.4 +14.3 68 +24 +25 комфорт 1011.3 990.8
ЮЗ 2 25 км 9/5 900 м
[Cu med, cong Ac trans]
+21.2 +14.6 66 +24 +28 комфорт 1011.4 990.9
Ю 3 25 км 9/5 900 м
[Cu med, cong Ac trans]
+21.5 +13.9 62 +24 +28 комфорт 1011.4 990.9
Ю 2 25 км слаб. дождь 10/10 900 м
[Cu Sc]
+21.0 +14.6 67 +25 +25 комфорт 1011.0 990.5 0.0
ЮВ 2 25 км слаб. дождь 10/10 1000 м
[Cu Sc]
+21.0 +16.0 73 +25 +25 комфорт 1010.9 990.4 0.0
Ю 3 25 км в посл. час дождь 9/5 750 м
[Cu med, cong Ac As]
+20.5 +15.3 72 +24 +26 комфорт 1010.7 990.2 0.1
Ю 4 25 км 10/4 1200 м
[Cu med, cong Ac As]
+20.0 +15.2 74 +22 +23 комфорт 1010.8 990.2
Ю 3 25 км 9/5 1000 м
[Cu med, cong Ac As]
+20.1 +14.9 72 +23 +24 комфорт 1010.5 990.0
В 2 25 км 9/4 1500 м
[Sc Ac trans]
+20.0 +14.6 71 +23 +24 комфорт 1010.4 989.9
В 1 25 км 9/4 1500 м
[Sc Ac inh]
+19.9 +13.6 67 +23 +23 комфорт 1010.6 990.0
нст 1 25 км {дождь} 9/0
[Ac As]
+19.0 +14.3 74 +21 +21 комфорт 1010.9 990.3 +22.1
Ю 2 23 км 9/3 960 м
[Cu med, cong Ac trans]
+17.4 +14.5 83 +18 +18 1011.4 990.6
Ю 1 20 км 8/0
[Ac trans]
+15.7 +13.9 89 +16 +16 1011.5 990.6
нст 1 н/о н/о +15.8 +13.8 88 +16 +16 1011.5 990.6
1 н/о н/о +15.2 +14.1 93 +16 +16 1011.9 991.0
1 н/о н/о +15.3 +14.3 94 +16 +16 1012.0 991.1 0.1
нст 1 н/о н/о +15.4 +14.6 95 +16 +16 1012.0 991.1
штиль 0 н/о н/о +15.1 +14.5 96 +15 +15 1011.9 991.0
штиль 1 н/о н/о +15.3 +14.7 96 +16 +16 1012.2 991.3
штиль 0 н/о н/о +14.9 +14.3 96 +15 +15 1012.8 991.8
штиль 0 н/о н/о +15.2 +14.6 96 +15 +15 1013.0 992.1
штиль 0 н/о н/о +15.8 +15.0 95 +16 +16 1013.4 992.5
штиль 0 14 км 10/10 270 м
[Sc]
+16.1 +14.8 92 +16 +16 1013.8 992.9 +14.7 0.1
1 15 км слаб. дождь 9/9 300 м
[Cu Sc]
+17.0 +15.4 90 +18 +19 1014.1 993.3 0.0
1 15 км в посл. час дождь 9/9 400 м
[Cu med, cong]
+18.5 +16.1 86 +20 +22 1014.2 993.5 0.0
В 2 12 км слаб. ливневой дождь 9/9 540 м
[Cu med, cong]
+18.5 +16.1 86 +20 +21 1014.5 993.8 0.9
В 2 12 км в посл. час ливневой дождь 8/6 150 м
[Cu med, cong Ac trans]
+18.5 +15.2 81 +20 +25 1014.6 993.9 0.0
В 1 15 км 9/9 420 м
[Cb cap]
+20.6 +16.0 75 +25 +27 комфорт 1014.4 993.8
С 2 18 км в посл. час ливневой дождь 9/9 1000 м
[Cu med, cong]
+20.6 +16.2 76 +24 +26 комфорт 1014.6 994.0 0.2
В 4 20 км гроза без осадков 9/8 840 м
[Cb cap Ci sp]
+20.6 +15.6 73 +24 +25 комфорт 1014.5 993.9
В 2 20 км слаб. ливневой дождь {гроза} 9/9 900 м
[Cb cap]
+19.2 +16.1 82 +21 +22 комфорт 1014.8 994.1 0.0
нст 1 20 км слаб. дождь {гроза, ливн. дождь} 9/4 1500 м
[Cu med, cong Ac As]
+19.0 +16.8 87 +22 +23 комфорт 1015.2 994.5 0.2
Ю 2 20 км слаб. дождь 9/3 1500 м
[Cu med, cong Ac As]
+18.2 +16.7 91 +19 +20 1015.2 994.5 0.5
Ю 1 23 км в посл. час дождь 9/0
[Ac trans Ci sp]
+17.7 +16.4 92 +19 +19 1015.9 995.1 0.0
штиль 0 20 км {гроза, ливн. дождь} 9/0
[Ac As]
+17.2 +16.2 94 +17 +17 1016.4 995.5 +21.0
Ю 2 20 км 9/0
[Ac As]
+16.3 +15.5 95 +16 +16 1016.9 996.0
Ю 2 17 км 5/0
[Ac lent]
+15.2 +14.4 95 +15 +15 1017.3 996.3
Ю 1 н/о н/о +14.6 +13.8 95 +15 +15 1017.7 996.6
1 н/о н/о +13.9 +13.6 98 +14 +14 1017.9 996.8
1 н/о н/о +14.1 +13.9 99 +14 +14 1018.1 997.0
штиль 0 н/о н/о +14.1 +13.9 99 +14 +14 1018.1 997.0
штиль 0 н/о н/о +14.0 +13.7 98 +14 +14 1018.1 997.0
штиль 1 н/о н/о +13.7 +13.5 99 +14 +14 1018.4 997.2
нст 1 н/о н/о +13.3 +13.1 99 +13 +13 1018.6 997.4
1 н/о н/о +12.9 +12.6 98 +13 +13 1018.9 997.7
1 н/о н/о +13.3 +13.0 98 +13 +13 1019.0 997.8
нст 1 4000 м дымка {ливн. дождь, туман} 8/6 90 м
[St Ac trans]
+15.5 +14.5 94 +16 +18 1019.0 998.0 +12.8 1.8
1 40 км 4/1 800 м
[Sc Ac lent]
+18.2 +16.2 88 +20 +27 1019.0 998.2
З 2 40 км 4/1 900 м
[Cu med, cong Ac lent Cc]
+21.2 +17.0 77 +25 +34 комфорт 1018.6 998.0
нст 1 40 км 4/1 1080 м
[Cu med, cong Ac trans Ci fib]
+22.6 +16.9 70 +27 +41 душно 1018.7 998.2
ЮВ 2 40 км 4/3 1500 м
[Cu med, cong Ac lent]
+26.0 +12.8 44 +28 +39 жарко 1018.4 998.1
Ю 5 40 км 5/3 1500 м
[Cu med, cong Ac cuf Ci fib]
+26.4 +14.2 47 +29 +34 жарко 1018.1 997.8
Ю 3 40 км 4/3 1500 м
[Cb calv Ci fib]
+26.8 +12.1 40 +28 +37 жарко 1017.4 997.2
Ю 4 40 км 3/3 1500 м
[Cb calv]
+27.3 +10.1 34 +28 +34 жарко 1017.1 996.9
Ю 3 40 км 3/1 1500 м
[Cu med, cong Ci ing]
+27.4 +11.0 36 +28 +35 жарко 1017.1 996.9
З 8 35 км 4/3 1500 м
[Cb cap Ac cuf Ci ing]
+23.6 +11.3 46 +25 +26 комфорт 1018.2 997.7
З 3 35 км 3/1 1500 м
[Cb cap Ac cuf Ci ing]
+22.1 +10.9 49 +24 +26 комфорт 1018.4 997.8
З 1 40 км 5/4 1500 м
[Cb cap Ac cuf]
+22.4 +10.9 48 +24 +25 комфорт 1018.8 998.2
В 3 35 км слаб. ливневой дождь 9/9 1380 м
[Cb cap]
+19.5 +12.3 63 +21 +21 комфорт 1020.8 1000.0 +27.7
Ю 2 35 км слаб. ливневой дождь, в посл. час гроза 9/0
[Ac As]
+16.9 +14.2 84 +17 +17 1021.4 1000.4 0.5
Ю 1 35 км в посл. час дождь 9/0
[Ac As]
+15.4 +13.9 91 +16 +16 1020.5 999.4 0.1
штиль 0 н/о н/о +14.5 +13.5 94 +14 +14 1021.0 999.8
1 н/о н/о +14.6 +13.2 91 +15 +15 1021.3 1000.1
1 н/о н/о +14.2 +13.2 94 +14 +14 1021.3 1000.1
нст 1 н/о н/о +14.0 +13.2 95 +14 +14 1021.4 1000.2
1 н/о н/о +13.8 +12.8 94 +14 +14 1021.4 1000.2
1 н/о н/о +12.8 +12.0 95 +13 +13 1021.4 1000.1
нст 1 н/о н/о +11.9 +11.4 97 +12 +12 1021.5 1000.1
1 н/о н/о +12.5 +11.6 94 +12 +12 1021.8 1000.5
1 н/о н/о +14.8 +12.5 86 +15 +15 1021.6 1000.4
В 2 30 км 3/0
[Ac cast Ci fib]
+17.0 +12.8 76 +17 +22 1021.5 1000.5 +11.8 0.9
В 2 30 км 3/0
[Ac cast]
+19.3 +13.0 67 +21 +29 комфорт 1021.0 1000.2
В 1 30 км 4/0
[Ac trans]
+21.6 +13.3 59 +24 +36 комфорт 1020.6 999.9
С 2 30 км 5/1 1200 м
[Cu med, cong Ac trans]
+23.0 +13.5 55 +26 +37 жарко 1020.6 1000.1
С 2 30 км 6/4 1300 м
[Cb cap Ac trans]
+23.3 +14.0 56 +27 +35 душно 1020.4 999.9
З 2 30 км 5/5 1300 м
[Cb cap]
+25.4 +14.9 52 +28 +37 жарко 1019.5 999.1
С 2 30 км 5/3 1380 м
[Cu med, cong Ac lent Ci ing]
+25.9 +12.8 44 +28 +37 жарко 1019.0 998.7
З 3 30 км 4/4 1500 м
[Cb cap Ac lent]
+27.5 +10.7 35 +28 +35 жарко 1018.3 998.1
СЗ 3 30 км 4/3 1500 м
[Cu med, cong Ac lent]
+27.1 +11.2 37 +28 +33 жарко 1017.7 997.5
ЮЗ 2 30 км 4/3 1500 м
[Cu med, cong Ci sp]
+27.3 +6.2 26 +27 +31 жарко 1017.1 996.9
Ю 2 30 км 5/4 1500 м
[Cu med, cong Ac lent]
+27.1 +4.2 23 +26 +27 жарко 1017.4 997.1
Ю 2 30 км 5/4 1500 м
[Cb cap Ci sp]
+26.2 +8.2 32 +26 +27 жарко 1017.4 997.1
нст 1 30 км 5/0
[Ac cuf Ci ing]
+23.7 +9.3 40 +25 +25 комфорт 1018.4 997.9 +27.6
ЮЗ 2 25 км 5/0
[Ac cuf Ci sp]
+20.6 +9.2 48 +23 +23 комфорт 1019.6 998.9
Ю 2 20 км слаб. ливневой дождь 8/0
[Ac cuf]
+20.6 +10.1 51 +23 +23 комфорт 1020.3 999.6 0.0
нст 2 н/о н/о +17.5 +11.5 68 +18 +18 1020.4 999.5
1 н/о н/о +15.8 +13.5 86 +16 +16 1020.8 999.7
1 н/о н/о +14.3 +12.3 88 +15 +15 1020.8 999.6
нст 1 н/о н/о +12.7 +11.8 94 +13 +13 1020.7 999.4
1 н/о н/о +11.9 +10.5 91 +12 +12 1020.7 999.3
1 н/о н/о +10.8 +9.9 94 +10 +10 1020.8 999.3
штиль 0 н/о н/о +10.2 +9.1 93 +9 +9 1020.9 999.4
штиль 0 н/о н/о +11.7 +10.3 91 +11 +11 1021.0 999.6
штиль 1 н/о н/о +14.9 +10.7 76 +15 +15 1021.0 999.8
нст 1 40 км 5/0
[Ci fib]
+17.5 +11.1 66 +19 +25 1021.0 1000.0 +10.2 0.2
1 40 км 5/0
[Ac lent Ci fib]
+20.3 +13.0 63 +24 +33 комфорт 1020.8 1000.0
1 40 км 4/1 1080 м
[Cu hum Ac lent Ci fib]
+21.4 +14.6 65 +24 +36 комфорт 1020.7 1000.0
нст 1 40 км 4/1 1500 м
[Cu med, cong Ci fib]
+25.0 +6.7 31 +25 +41 комфорт 1020.5 1000.0
Местоположение метеостанции Каменица-над-Сирочью (Словакия): широта 48.93 долгота 22.00 высота над уровнем моря 178 м.
В архиве по умолчанию представлена погода в Каменице-над-Сирочью за последнюю неделю. Архивные данные за месяц целиком и за предыдущие месяцы, начиная с января 2011 года, Вы можете получить, выбрав интересующий диапазон дат из раскрывающегося списка и нажав кнопку "Найти!".
*Определитесь, кто Вы:
Внимание! Время в таблицах - всемирное. Для получения местного времени необходимо прибавить поправку, которая равна 1 ч.
Некоторые строки с данными для отдельных станций могут быть выделены курсивом. Это означает, что фактические данные отсутствуют по различным причинам, а приведенные значения являются расчетными модельными данными для данного пункта наблюдений.
Смотрите также архив погоды в соседних городах и на ближайших метеорологических станциях:
Партнеры нашего сайта:      
Пояснения к столбцам:
  • Ветер - указаны скорость ветра в м/с - средняя за 10 мин, порывы в срок и между сроками (в фигурных скобках) и направление, откуда дует ветер: С - северный,
  • СВ - северо-восточный, В - восточный, ЮВ - юго-восточный, Ю - южный, ЮЗ - юго-западный, З - западный, СЗ - северо-западный.
  • Видимость - горизонтальная дальность видимости в метрах или километрах. При видимости от 1 до 10 км при отсутствии осадков обычно наблюдается дымка, при ухудшении видимости до 1 км и менее - туман. В сухую погоду видимость может ухудшаться дымом, пылью или мглою.
  • Явления - указаны атмосферные явления, наблюдавшиеся в срок или в последний час перед сроком; фигурными скобками обозначены явления, наблюдавшиеся между сроками (за 1-3 часа до срока); квадратными скобками обозначены град или гололедные отложения с указанием их диаметра в мм.
  • Облачность - указаны через наклонную черту общая и нижняя облачность в баллах и высота нижней границы облаков в метрах; квадратными скобками обозначены формы облаков: Ci - перистые, Cs - перисто-слоистые, Cc - перисто-кучевые, Ac - высококучевые, As - высокослоистые, Sc - слоисто-кучевые, Ns - слоисто-дождевые, Cu - кучевые, Cb - кучево-дождевые. Подробнее классификацию облаков см. в Атласе облаков (PDF).
  • T - Температура воздуха - температура, измеренная на высоте 2 м над землей.
  • Td - Температура точки росы - температура, при понижении до которой содержащийся в воздухе водяной пар достигнет насыщения.
  • f - Относительная влажность воздуха - влажноcть воздуха, измеренная на высоте 2 м над землей.
  • Te - Эффективная температура - температура, которую ощущает одетый по сезону человек в тени. Характеристика душности погоды. При расчете учитывается влияние влажности воздуха и скорости ветра на теплоощущения человека.
  • Tes - Эффективная температура на солнце - температура, которую ощущает человек, с поправкой на солнечный нагрев. Характеристика знойности погоды. Зависит от высоты солнца над горизонтом, облачности и скорости ветра. Ночью, в пасмурную погоду, а также при ветре 12 м/с и более поправка равна нулю.
  • P - Атмосферное давление - приведенное к уровню моря атмосферное давление.
  • Po - Атмосферное давление - измеренное на уровне метеостанции атмосферное давление.
  • Tmin - Минимальная температура - минимум температуры воздуха на высоте 2 м над землей.
  • Tmax - Максимальная температура - максимум температуры воздуха на высоте 2 м над землей.
  • R - Количество осадков - Количество выпавших осадков за период времени, мм. При наведении курсора мыши на число - период времени, за который выпало указанное количество осадков.
  • R24 - Количество осадков - Количество выпавших осадков за 24 часа, мм.
  • S - Снежный покров - Высота снежного покрова, см. При наведении курсора мыши на число - состояние снежного покрова и степень покрытия местности в баллах.